Location: ????????
(55.0559°N, 39.1270°E)
Time: 18:16:52
(UTC+00:00)

ADEOS Rocket - Pass Details

Date: 15 November 2025
Orbit: 859 x 1304 km, 98.7° (Epoch: 14 December)

Event Time Altitude Azimuth Distance (km) Brightness Sun altitude
Rises 00:13:04 0° 17° (NNE) 3,846 6.6 -39.5°
Reaches altitude 10° 00:15:36 10° 23° (NNE) 2,949 6.0 -39.1°
Enters shadow 00:21:59 51° 93° (E) 1,443 4.0 -38.3°
